Tacoma Narrows, WA
on Monday, November 12, 2012

Monday
Previous Day Next Day
Daily Summary
 ActualAverageRecord
Temperature
Mean Temperature °F °F  
Max Temperature 54°F 49°F 59°F (2013)
Min Temperature 44°F 41°F 32°F (2000)
Degree Days
Heating Degree Days 16    
Moisture
Dew Point 45°F   
Average Humidity 88    
Maximum Humidity 96    
Minimum Humidity 75    
Precipitation
Precipitation 0.12 in in in ()
Wind
Wind Speed 6 mph   
Max Wind Speed 15 mph   
Max Gust Speed 21 mph   
Visibility 8 miles   
Events Rain   
Averages and records for this station are not official NWS values.
Key: T is trace of precipitation, MM is missing value
Source: NWS Daily Summary
Seasonal Weather Averages
Time(PST)TemperatureDew PointHumidity Pressure Visibility Wind DirectionWind SpeedGust SpeedPrecipitationEvents Conditions
12:53 AM 45.0°F 43.0°F 93% 30.09 in 4.0 miles NNE 5.8 mph - 0.03 in Rain Light Rain
1:42 AM 44.6°F 42.8°F 93% 30.08 in 5.0 miles NE 4.6 mph - 0.03 in Rain Light Rain
1:53 AM 44.1°F 43.0°F 96% 30.09 in 4.0 miles NE 5.8 mph - 0.03 in Rain Light Rain
2:53 AM 44.1°F 43.0°F 96% 30.09 in 5.0 miles NE 4.6 mph - 0.00 in Rain Light Rain
3:53 AM 45.0°F 43.0°F 93% 30.09 in 5.0 miles Calm Calm - 0.03 in Rain Light Rain
4:21 AM 44.6°F 42.8°F 93% 30.08 in 5.0 miles Calm Calm - 0.00 in Rain Light Rain
4:48 AM 44.6°F 42.8°F 93% 30.09 in 6.0 miles Calm Calm - 0.01 in Rain Light Rain
4:53 AM 45.0°F 43.0°F 93% 30.10 in 6.0 miles Calm Calm - 0.01 in   Overcast
5:31 AM 46.4°F 42.8°F 87% 30.08 in 9.0 miles Calm Calm - 0.01 in   Overcast
5:53 AM 46.0°F 44.1°F 93% 30.09 in 3.0 miles Calm Calm - 0.01 in Rain Light Rain
6:35 AM 46.4°F 44.6°F 93% 30.09 in 10.0 miles South 5.8 mph - 0.01 in   Overcast
6:53 AM 46.9°F 44.1°F 90% 30.10 in 10.0 miles SSW 8.1 mph - 0.01 in   Overcast
7:53 AM 48.9°F 45.0°F 86% 30.12 in 10.0 miles SSW 6.9 mph - N/A   Overcast
8:53 AM 48.9°F 45.0°F 86% 30.13 in 10.0 miles South 12.7 mph 18.4 mph N/A   Overcast
9:15 AM 50.0°F 44.6°F 82% 30.12 in 10.0 miles South 15.0 mph 20.7 mph N/A   Overcast
9:42 AM 50.0°F 46.4°F 87% 30.13 in 10.0 miles SSW 13.8 mph - N/A   Overcast
9:53 AM 50.0°F 46.0°F 86% 30.14 in 10.0 miles South 11.5 mph - N/A   Overcast
10:53 AM 52.0°F 46.0°F 80% 30.15 in 10.0 miles South 13.8 mph 19.6 mph N/A   Mostly Cloudy
11:53 AM 52.0°F 46.0°F 80% 30.16 in 10.0 miles South 8.1 mph - N/A   Overcast
12:53 PM 54.0°F 46.0°F 75% 30.15 in 10.0 miles South 11.5 mph 17.3 mph N/A   Mostly Cloudy
1:53 PM 53.1°F 46.0°F 77% 30.16 in 10.0 miles South 9.2 mph - N/A   Mostly Cloudy
2:53 PM 52.0°F 46.0°F 80% 30.16 in 10.0 miles SSW 9.2 mph - N/A   Mostly Cloudy
3:53 PM 52.0°F 46.0°F 80% 30.17 in 10.0 miles SSW 6.9 mph - N/A   Mostly Cloudy
4:53 PM 51.8°F 46.4°F 82% 30.17 in 10.0 miles South 5.8 mph - N/A   Overcast
5:53 PM 51.1°F 46.0°F 83% 30.18 in 10.0 miles South 4.6 mph - 0.00 in   Overcast
6:53 PM 51.1°F 46.0°F 83% 30.19 in 10.0 miles South 8.1 mph - N/A   Overcast
7:53 PM 50.0°F 46.0°F 86% 30.20 in 10.0 miles SSW 10.4 mph - N/A   Overcast
8:29 PM 50.0°F 46.4°F 87% 30.20 in 9.0 miles South 11.5 mph - N/A   Overcast
8:53 PM 48.9°F 46.9°F 93% 30.21 in 10.0 miles South 10.4 mph - 0.00 in   Overcast
9:35 PM 48.2°F 46.4°F 93% 30.20 in 10.0 miles South 5.8 mph - 0.00 in   Overcast
9:53 PM 48.9°F 46.9°F 93% 30.21 in 10.0 miles South 8.1 mph - 0.00 in   Overcast
10:53 PM 48.9°F 46.0°F 90% 30.22 in 10.0 miles South 6.9 mph - N/A   Mostly Cloudy
11:53 PM 48.9°F 46.0°F 90% 30.22 in 10.0 miles Calm Calm - N/A   Overcast
Moon Phase
Nov. 12 Nov. 13 Nov. 20 Nov. 28 Dec. 06
Sunrise:07:10 AM (PST) Moon Rise:05:39 AM (PST)11/12
Sunset:04:37 PM (PST) Moon Set:03:48 PM (PST)11/12

Copyright © 2014 The Weather Underground, Inc.